Flag for U.S.A. Weather past 2 weeks in Bridgeport, Connecticut, U.S.A.

Now
75 °F

Passing clouds.


Feels Like: 77 °F
Forecast: 65 / 80 °F
Wind: 10 mph from Southwest

Location: Sikorsky Memorial Airport

Current Time: Jul 31, 2014 at 10:25:46 AM

Latest Report: Jul 31, 2014 at 9:52 AM


Visibility: 10 mi

Pressure: 30.10 "Hg

Humidity: 62%

Dew point: 61 °F

Location of BridgeportLocation

Historic Weather in Bridgeport — Graph

°F

Bridgeport temperature yesterday

Maximum temperature yesterday: 79 °F (at 3:52 PM)
Minimum temperature yesterday: 61 °F (at 3:52 AM)
Average temperature yesterday: 71 °F

Past Weeks' High & Low Weather Summary

 TemperatureHumidityPressure
High86 °F (Jul 23, 2:52 PM)94% (Jul 28, 2:52 AM)30.26 "Hg (Jul 28, 2:52 AM)
Low61 °F (Jul 30, 3:52 AM)35% (Jul 30, 5:52 PM)29.49 "Hg (Jul 28, 3:52 PM)
Average73 °F68%29.97 "Hg
* Reported Jul 16 8:52 AM — Jul 31 8:52 AM, Bridgeport, Weather by CustomWeather, © 2014

Note: Actual official high and low records may vary slightly from our data, if they occured in-between our weather recording intervals... More about our weather records

Advertising

Bridgeport weather history for previous 24 hours

 ConditionsComfort  
Time TempWeatherWind HumidityBarometerVisibility
8:52 AM
Jul 31
72 °FSunny.7 mph73%30.10 "Hg10 mi
7:52 AM69 °FSunny.No wind84%30.10 "Hg10 mi
6:52 AM65 °FSunny.No wind87%30.09 "Hg10 mi
5:52 AM64 °FClear.No wind87%30.08 "Hg10 mi
4:52 AM64 °FClear.3 mph87%30.06 "Hg10 mi
3:52 AM65 °FClear.No wind87%30.06 "Hg10 mi
2:52 AM67 °FClear.No wind85%30.05 "Hg10 mi
1:52 AM68 °FClear.No wind82%30.05 "Hg10 mi
12:52 AM70 °FClear.No wind81%30.05 "Hg10 mi
11:52 PM
Jul 30
71 °FClear.6 mph73%30.05 "Hg10 mi
10:52 PM72 °FClear.9 mph68%30.04 "Hg10 mi
9:52 PM73 °FClear.14 mph64%30.04 "Hg10 mi
8:52 PM74 °FSunny.13 mph60%30.03 "Hg10 mi
7:52 PM74 °FSunny.6 mph53%30.02 "Hg10 mi
6:52 PM78 °FSunny.5 mph36%30.01 "Hg10 mi
5:52 PM79 °FSunny.8 mph35%30.00 "Hg10 mi
4:52 PM79 °FSunny.10 mph36%30.00 "Hg10 mi
3:52 PM79 °FSunny.13 mph41%30.00 "Hg10 mi
2:52 PM76 °FSunny.12 mph50%30.00 "Hg10 mi
1:52 PM77 °FSunny.10 mph50%30.01 "Hg10 mi
12:52 PM75 °FSunny.9 mph54%30.01 "Hg10 mi
11:52 AM74 °FSunny.9 mph56%30.02 "Hg10 mi
10:52 AM72 °FSunny.7 mph59%30.02 "Hg10 mi
Weather by CustomWeather, © 2014

See weather overviewHow to use our weather pages